星链-30925 (STARLINK-30925 )

导读

STARLINK-30925是美国太空探索技术公司SpaceX星链互联网卫星星座中的一颗卫星,于2023年11月22日08:00发射入轨。星链计划旨在打造全球卫星互联网覆盖网络,为偏远地区、海上和空中提供高速互联网服务,STARLINK-30925的入轨进一步扩充了星链星座的服务容量。

Basic Information
目录编号:
58406
目录名称:
STARLINK-30925
国际标识:
2023-180E
轨道中心:
EARTH
卫星名称:
星链-30925
卫星全名:
星链-30925 (STARLINK-30925 )
卫星状态:
在轨 (已飞行1018 天)
发射日期:
2023-11-22 UTC
国别 :
美国 (US)
星等 :
--
Orbit Information
数据来源 国际轨道数据 AOE轨道数据
星历时间 2026-09-04T09:25:26+0800
1天前
查看轨道信息
2026-08-31T23:00:00+0800
4天前
查看轨道信息
半长轴 6861.1km 6861.208km
偏心率 0.0001386 0.0003451
轨道倾角 43.003° 43.004°
近地点辐角 278.354° 245.578°
升交点赤经 125.362° 144.743°
平近点角 81.715° 285.989°
近地点 482.012km 480.703km
远地点 483.914km 485.439km
周期 94.265分钟 94.267分钟
每日圈数 15.276089 15.275727
Detailed Information
固有亮度:
5
最大亮度:
0.3
卫星平台:
Starlink v2.0 mini
覆盖范围:
全球
运营商:
太空探索技术公司
运营商所在国:
美国
制造商(研发单位):
太空探索技术公司
制造商所在国:
美国
使用方式:
暂无
Satellite Introduction
星链(Starlink)计划是由太空探索技术公司(SpaceX)提出的一个巨型低轨卫星互联网星座项目,计划在2019年至2024年间在太空搭建由约1.2万颗卫星组成的“星链”网络,其中1584颗将部署在地球上空550千米处的近地轨道,并从2020年开始工作。该卫星仍在工作。
2D Orbit Map
3D Orbit Map
Orbit Altitude Analysis Chart
Orbit Inclination Analysis Chart
Orbit Comprehensive Analysis Chart
View Comprehensive Chart
Conjunction Data List
Event ID Objects TCA Miss Dist (km) Collision Risk Probability Collision Risk Index (CRI) Action
CDM_260906-134904-940205-840623
KOSEN-1 (49402)
2026-09-06T
13:49:58+0000
1.401 km
极远距离
8.244858E-6 低风险 0.53
CDM_260907-141605-840606-221321
2026-09-07T
14:16:28+0000
1.843 km
极远距离
2.740021E-6 低风险 0.44
CDM_260907-092505-840606-021421
2026-09-07T
09:25:58+0000
2.796 km
极远距离
1.443722E-6 低风险 0.38